| time (UTC) | temp C | wind direction | speed KPH | gust KPH | rain 1hr cm | rain 24hr cm | rain mn cm | humidity % | barometer mb |
| 20260504110525 | 12 | 162 | 0.0 | 3.2 | 0.00 | 0.00 | 0.00 | 80 | 1013.7 |
| 20260504100523 | 11 | 165 | 0.0 | 1.6 | 0.00 | 0.00 | 0.00 | 81 | 1013.6 |
| 20260504081518 | 11 | 222 | 1.6 | 8.0 | 0.00 | 0.00 | 0.00 | 84 | 1013.7 |
| 20260504081018 | 11 | 199 | 0.0 | 4.8 | 0.00 | 0.00 | 0.00 | 84 | 1013.7 |
| 20260504080517 | 11 | 167 | 1.6 | 6.4 | 0.00 | 0.00 | 0.00 | 84 | 1013.7 |
| 20260504050551 | 7 | 231 | 0.0 | 1.6 | 0.00 | 0.00 | 0.00 | 81 | 1013.8 |
| 20260504045549 | 7 | 231 | 0.0 | 0.0 | 0.00 | 0.00 | 0.00 | 81 | 1014.0 |
| 20260504045049 | 7 | 231 | 0.0 | 1.6 | 0.00 | 0.00 | 0.00 | 80 | 1014.0 |
| 20260504044549 | 7 | 231 | 0.0 | 1.6 | 0.00 | 0.00 | 0.00 | 80 | 1014.0 |
| 20260504044048 | 7 | 231 | 0.0 | 1.6 | 0.00 | 0.00 | 0.00 | 80 | 1014.0 |
| 20260504043551 | 7 | 231 | 0.0 | 1.6 | 0.00 | 0.00 | 0.00 | 80 | 1013.9 |
| 20260504043055 | 7 | 232 | 0.0 | 0.0 | 0.00 | 0.00 | 0.00 | 80 | 1013.8 |
| 20260504042547 | 6 | 231 | 0.0 | 3.2 | 0.00 | 0.00 | 0.00 | 80 | 1013.9 |
| 20260504042049 | 6 | 231 | 0.0 | 3.2 | 0.00 | 0.00 | 0.00 | 81 | 1013.8 |
| 20260504041544 | 6 | 236 | 0.0 | 0.0 | 0.00 | 0.00 | 0.00 | 81 | 1013.7 |
| 20260504041044 | 6 | 236 | 0.0 | 0.0 | 0.00 | 0.00 | 0.00 | 80 | 1013.7 |
| 20260504040543 | 6 | 236 | 0.0 | 0.0 | 0.00 | 0.00 | 0.00 | 80 | 1013.6 |
| 20260504040044 | 6 | 236 | 0.0 | 0.0 | 0.00 | 0.00 | 0.00 | 80 | 1013.6 |
| 20260504035542 | 6 | 236 | 0.0 | 0.0 | 0.00 | 0.00 | 0.00 | 79 | 1013.6 |
| 20260504035046 | 6 | 236 | 0.0 | 0.0 | 0.00 | 0.00 | 0.00 | 79 | 1013.6 |
| 20260504034551 | 6 | 236 | 0.0 | 0.0 | 0.00 | 0.00 | 0.00 | 79 | 1013.5 |
| 20260504034041 | 6 | 236 | 0.0 | 0.0 | 0.00 | 0.00 | 0.00 | 80 | 1013.4 |
| 20260504033543 | 6 | 236 | 0.0 | 0.0 | 0.00 | 0.00 | 0.00 | 80 | 1013.4 |
| 20260504033042 | 6 | 236 | 0.0 | 0.0 | 0.00 | 0.00 | 0.00 | 80 | 1013.4 |
| 20260504032541 | 6 | 236 | 0.0 | 0.0 | 0.00 | 0.00 | 0.00 | 79 | 1013.3 |
| 20260504032045 | 6 | 236 | 0.0 | 0.0 | 0.00 | 0.00 | 0.00 | 78 | 1013.2 |
| 20260504031542 | 6 | 236 | 0.0 | 0.0 | 0.00 | 0.00 | 0.00 | 78 | 1013.3 |
| 20260504031040 | 7 | 236 | 0.0 | 0.0 | 0.00 | 0.00 | 0.00 | 77 | 1013.2 |
| 20260504030540 | 7 | 236 | 0.0 | 0.0 | 0.00 | 0.00 | 0.00 | 77 | 1013.3 |
| 20260504030046 | 7 | 236 | 0.0 | 0.0 | 0.00 | 0.00 | 0.00 | 76 | 1013.3 |
| 20260504025539 | 7 | 236 | 0.0 | 0.0 | 0.00 | 0.00 | 0.00 | 75 | 1013.2 |
| 20260504025039 | 7 | 236 | 0.0 | 0.0 | 0.00 | 0.00 | 0.00 | 75 | 1013.3 |
| 20260504024539 | 7 | 236 | 0.0 | 1.6 | 0.00 | 0.00 | 0.00 | 74 | 1013.2 |
| 20260504024038 | 7 | 236 | 0.0 | 1.6 | 0.00 | 0.00 | 0.00 | 74 | 1013.2 |
| 20260504023538 | 8 | 236 | 0.0 | 0.0 | 0.00 | 0.00 | 0.00 | 73 | 1013.3 |
| 20260504023038 | 8 | 236 | 0.0 | 1.6 | 0.00 | 0.00 | 0.00 | 72 | 1013.2 |
| 20260504022538 | 8 | 236 | 0.0 | 1.6 | 0.00 | 0.00 | 0.00 | 72 | 1013.2 |
| 20260504022038 | 8 | 236 | 0.0 | 1.6 | 0.00 | 0.00 | 0.00 | 72 | 1013.3 |
| 20260504021537 | 8 | 236 | 0.0 | 1.6 | 0.00 | 0.00 | 0.00 | 73 | 1013.2 |
| 20260504021037 | 8 | 236 | 0.0 | 0.0 | 0.00 | 0.00 | 0.00 | 72 | 1013.2 |
| 20260504020537 | 8 | 236 | 0.0 | 1.6 | 0.00 | 0.00 | 0.00 | 71 | 1013.2 |
| 20260504020043 | 8 | 236 | 0.0 | 3.2 | 0.00 | 0.00 | 0.00 | 70 | 1013.2 |
| 20260504015536 | 8 | 236 | 0.0 | 1.6 | 0.00 | 0.00 | 0.00 | 72 | 1013.2 |
| 20260504015037 | 8 | 236 | 0.0 | 1.6 | 0.00 | 0.00 | 0.00 | 71 | 1013.1 |
| 20260504014543 | 7 | 236 | 0.0 | 1.6 | 0.00 | 0.00 | 0.00 | 71 | 1013.0 |
| 20260504014036 | 8 | 236 | 0.0 | 0.0 | 0.00 | 0.00 | 0.00 | 70 | 1013.0 |
| 20260504013536 | 8 | 236 | 0.0 | 0.0 | 0.00 | 0.00 | 0.00 | 69 | 1013.0 |
| 20260504013037 | 8 | 236 | 0.0 | 0.0 | 0.00 | 0.00 | 0.00 | 69 | 1013.0 |
| 20260504012536 | 8 | 236 | 0.0 | 0.0 | 0.00 | 0.00 | 0.00 | 69 | 1012.9 |
| 20260504012041 | 8 | 236 | 0.0 | 1.6 | 0.00 | 0.00 | 0.00 | 68 | 1012.8 |
| 20260504011536 | 8 | 236 | 0.0 | 1.6 | 0.00 | 0.00 | 0.00 | 68 | 1012.8 |
| 20260504011035 | 8 | 236 | 0.0 | 1.6 | 0.00 | 0.00 | 0.00 | 67 | 1012.7 |
| 20260504010535 | 8 | 236 | 0.0 | 1.6 | 0.00 | 0.00 | 0.00 | 66 | 1012.8 |
| 20260504010035 | 8 | 236 | 0.0 | 1.6 | 0.00 | 0.00 | 0.00 | 67 | 1012.8 |
| 20260504005535 | 8 | 236 | 0.0 | 0.0 | 0.00 | 0.00 | 0.00 | 68 | 1012.8 |
| 20260504005035 | 8 | 236 | 0.0 | 0.0 | 0.00 | 0.00 | 0.00 | 65 | 1012.7 |
| 20260504004535 | 8 | 236 | 0.0 | 0.0 | 0.00 | 0.00 | 0.00 | 63 | 1012.6 |
| 20260504004035 | 9 | 236 | 0.0 | 0.0 | 0.00 | 0.00 | 0.00 | 62 | 1012.6 |
| 20260504003534 | 9 | 236 | 0.0 | 0.0 | 0.00 | 0.00 | 0.00 | 61 | 1012.5 |
| 20260504003035 | 10 | 236 | 0.0 | 0.0 | 0.00 | 0.00 | 0.00 | 60 | 1012.5 |
| 20260504002534 | 10 | 236 | 0.0 | 0.0 | 0.00 | 0.00 | 0.00 | 58 | 1012.5 |
| 20260504002034 | 10 | 236 | 0.0 | 0.0 | 0.00 | 0.00 | 0.00 | 57 | 1012.4 |
| 20260504001537 | 11 | 236 | 0.0 | 0.0 | 0.00 | 0.00 | 0.00 | 55 | 1012.4 |
| 20260504001034 | 11 | 236 | 0.0 | 0.0 | 0.00 | 0.00 | 0.00 | 53 | 1012.4 |
| 20260504000533 | 12 | 236 | 0.0 | 0.0 | 0.00 | 0.00 | 0.00 | 51 | 1012.2 |
| 20260504000037 | 12 | 236 | 0.0 | 0.0 | 0.00 | 0.00 | 0.00 | 50 | 1012.2 |
| 20260503235533 | 13 | 236 | 0.0 | 1.6 | 0.00 | 0.00 | 0.00 | 48 | 1012.1 |
| 20260503235033 | 13 | 236 | 0.0 | 1.6 | 0.00 | 0.00 | 0.00 | 47 | 1012.0 |
| 20260503234533 | 13 | 236 | 0.0 | 3.2 | 0.00 | 0.00 | 0.00 | 45 | 1012.0 |
| 20260503234036 | 14 | 236 | 0.0 | 3.2 | 0.00 | 0.00 | 0.00 | 43 | 1011.9 |
| 20260503233535 | 14 | 236 | 0.0 | 3.2 | 0.00 | 0.00 | 0.00 | 43 | 1012.0 |
| 20260503233032 | 14 | 235 | 0.0 | 4.8 | 0.00 | 0.00 | 0.00 | 42 | 1012.0 |
| 20260503232532 | 15 | 247 | 0.0 | 9.7 | 0.00 | 0.00 | 0.00 | 42 | 1011.9 |
| 20260503232032 | 15 | 201 | 0.0 | 9.7 | 0.00 | 0.00 | 0.00 | 41 | 1011.9 |
| 20260503231533 | 15 | 298 | 0.0 | 6.4 | 0.00 | 0.00 | 0.00 | 41 | 1012.0 |
| 20260503231032 | 15 | 298 | 0.0 | 4.8 | 0.00 | 0.00 | 0.00 | 40 | 1012.0 |
| 20260503230531 | 15 | 208 | 0.0 | 6.4 | 0.00 | 0.00 | 0.00 | 41 | 1012.0 |
| 20260503230032 | 16 | 284 | 0.0 | 9.7 | 0.00 | 0.00 | 0.00 | 41 | 1012.0 |
| 20260503225533 | 16 | 270 | 1.6 | 9.7 | 0.00 | 0.00 | 0.00 | 39 | 1012.0 |
| 20260503225031 | 16 | 283 | 1.6 | 14.5 | 0.00 | 0.00 | 0.00 | 40 | 1012.0 |
| 20260503224530 | 16 | 259 | 3.2 | 14.5 | 0.00 | 0.00 | 0.00 | 40 | 1012.0 |
| 20260503224030 | 16 | 263 | 1.6 | 9.7 | 0.00 | 0.00 | 0.00 | 39 | 1012.0 |
| 20260503223530 | 16 | 255 | 0.0 | 12.9 | 0.00 | 0.00 | 0.00 | 40 | 1012.0 |
| 20260503223030 | 16 | 290 | 3.2 | 12.9 | 0.00 | 0.00 | 0.00 | 39 | 1012.0 |
| 20260503222531 | 16 | 260 | 3.2 | 9.7 | 0.00 | 0.00 | 0.00 | 39 | 1012.0 |
| 20260503222032 | 16 | 302 | 1.6 | 9.7 | 0.00 | 0.00 | 0.00 | 40 | 1012.0 |
| 20260503221531 | 16 | 130 | 1.6 | 8.0 | 0.00 | 0.00 | 0.00 | 40 | 1012.1 |
| 20260503221029 | 16 | 298 | 1.6 | 12.9 | 0.00 | 0.00 | 0.00 | 40 | 1012.1 |
| 20260503220528 | 16 | 300 | 1.6 | 12.9 | 0.00 | 0.00 | 0.00 | 40 | 1012.2 |
| 20260503220028 | 16 | 215 | 3.2 | 11.3 | 0.00 | 0.00 | 0.00 | 39 | 1012.1 |
| 20260503215526 | 16 | 271 | 3.2 | 11.3 | 0.00 | 0.00 | 0.00 | 40 | 1012.2 |
| 20260503215026 | 16 | 155 | 3.2 | 11.3 | 0.00 | 0.00 | 0.00 | 40 | 1012.0 |
| 20260503214538 | 16 | 297 | 0.0 | 11.3 | 0.00 | 0.00 | 0.00 | 41 | 1012.0 |
| 20260503214025 | 16 | 322 | 3.2 | 14.5 | 0.00 | 0.00 | 0.00 | 40 | 1012.1 |
| 20260503213525 | 16 | 297 | 4.8 | 14.5 | 0.00 | 0.00 | 0.00 | 40 | 1012.1 |
| 20260503213025 | 16 | 107 | 1.6 | 17.7 | 0.00 | 0.00 | 0.00 | 40 | 1012.2 |
| 20260503212526 | 16 | 250 | 4.8 | 17.7 | 0.00 | 0.00 | 0.00 | 39 | 1012.1 |
| 20260503212025 | 16 | 295 | 4.8 | 24.1 | 0.00 | 0.00 | 0.00 | 40 | 1012.1 |
| 20260503211525 | 16 | 133 | 6.4 | 24.1 | 0.00 | 0.00 | 0.00 | 41 | 1012.0 |
| 20260503211024 | 16 | 276 | 6.4 | 16.1 | 0.00 | 0.00 | 0.00 | 40 | 1012.1 |
| 20260503210524 | 16 | 121 | 4.8 | 14.5 | 0.00 | 0.00 | 0.00 | 40 | 1012.1 |
| 20260503210024 | 16 | 303 | 3.2 | 16.1 | 0.00 | 0.00 | 0.00 | 42 | 1012.0 |
| 20260503205524 | 16 | 273 | 6.4 | 16.1 | 0.00 | 0.00 | 0.00 | 40 | 1012.1 |
| 20260503205024 | 16 | 276 | 3.2 | 11.3 | 0.00 | 0.00 | 0.00 | 41 | 1012.1 |
| 20260503204523 | 16 | 166 | 4.8 | 12.9 | 0.00 | 0.00 | 0.00 | 41 | 1012.1 |
| 20260503204026 | 16 | 275 | 3.2 | 16.1 | 0.00 | 0.00 | 0.00 | 42 | 1012.1 |
| 20260503203526 | 16 | 276 | 3.2 | 16.1 | 0.00 | 0.00 | 0.00 | 42 | 1012.2 |
| 20260503203022 | 16 | 70 | 3.2 | 16.1 | 0.00 | 0.00 | 0.00 | 43 | 1012.3 |
| 20260503202522 | 15 | 264 | 4.8 | 20.9 | 0.00 | 0.00 | 0.00 | 42 | 1012.3 |
| 20260503202022 | 15 | 281 | 6.4 | 20.9 | 0.00 | 0.00 | 0.00 | 41 | 1012.5 |
| 20260503201521 | 16 | 304 | 3.2 | 14.5 | 0.00 | 0.00 | 0.00 | 42 | 1012.5 |
| 20260503201025 | 15 | 51 | 3.2 | 14.5 | 0.00 | 0.00 | 0.00 | 43 | 1012.6 |
| 20260503200521 | 15 | 54 | 3.2 | 19.3 | 0.00 | 0.00 | 0.00 | 42 | 1012.7 |
| 20260503200027 | 15 | 16 | 6.4 | 19.3 | 0.00 | 0.00 | 0.00 | 40 | 1012.6 |
| 20260503195519 | 15 | 260 | 4.8 | 16.1 | 0.00 | 0.00 | 0.00 | 42 | 1012.7 |
| 20260503195020 | 15 | 115 | 3.2 | 17.7 | 0.00 | 0.00 | 0.00 | 44 | 1012.8 |
| 20260503194519 | 15 | 245 | 4.8 | 17.7 | 0.00 | 0.00 | 0.00 | 42 | 1012.7 |
| 20260503194019 | 15 | 125 | 8.0 | 19.3 | 0.00 | 0.00 | 0.00 | 42 | 1012.7 |
| 20260503193519 | 15 | 167 | 6.4 | 19.3 | 0.00 | 0.00 | 0.00 | 42 | 1012.8 |
| 20260503193018 | 15 | 301 | 6.4 | 16.1 | 0.00 | 0.00 | 0.00 | 41 | 1013.0 |
| 20260503192518 | 15 | 243 | 3.2 | 17.7 | 0.00 | 0.00 | 0.00 | 44 | 1012.9 |
| 20260503192018 | 15 | 36 | 4.8 | 17.7 | 0.00 | 0.00 | 0.00 | 40 | 1013.0 |
| 20260503191519 | 15 | 277 | 1.6 | 24.1 | 0.00 | 0.00 | 0.00 | 44 | 1012.9 |
| 20260503191018 | 15 | 238 | 9.7 | 24.1 | 0.00 | 0.00 | 0.00 | 42 | 1012.8 |
| 20260503190516 | 15 | 262 | 6.4 | 20.9 | 0.00 | 0.00 | 0.00 | 40 | 1013.0 |
| 20260503190016 | 15 | 176 | 4.8 | 27.4 | 0.00 | 0.00 | 0.00 | 44 | 1013.0 |
| 20260503185516 | 15 | 293 | 6.4 | 20.9 | 0.00 | 0.00 | 0.00 | 42 | 1013.1 |
| 20260503185019 | 15 | 194 | 8.0 | 20.9 | 0.00 | 0.00 | 0.00 | 41 | 1013.1 |
| 20260503184516 | 14 | 75 | 6.4 | 29.0 | 0.00 | 0.00 | 0.00 | 41 | 1013.1 |
| 20260503184016 | 14 | 233 | 4.8 | 29.0 | 0.00 | 0.00 | 0.00 | 42 | 1013.2 |
| 20260503183516 | 14 | 81 | 4.8 | 19.3 | 0.00 | 0.00 | 0.00 | 41 | 1013.3 |
| 20260503183016 | 15 | 286 | 6.4 | 17.7 | 0.00 | 0.00 | 0.00 | 41 | 1013.3 |
| 20260503182515 | 15 | 338 | 4.8 | 17.7 | 0.00 | 0.00 | 0.00 | 43 | 1013.4 |
| 20260503182019 | 15 | 271 | 4.8 | 17.7 | 0.00 | 0.00 | 0.00 | 43 | 1013.4 |
| 20260503181513 | 15 | 245 | 3.2 | 16.1 | 0.00 | 0.00 | 0.00 | 45 | 1013.4 |
| 20260503181013 | 14 | 15 | 4.8 | 14.5 | 0.00 | 0.00 | 0.00 | 42 | 1013.4 |
| 20260503180512 | 14 | 243 | 6.4 | 22.5 | 0.00 | 0.00 | 0.00 | 42 | 1013.5 |
| 20260503180012 | 14 | 32 | 8.0 | 22.5 | 0.00 | 0.00 | 0.00 | 42 | 1013.5 |
| 20260503175510 | 13 | 285 | 6.4 | 14.5 | 0.00 | 0.00 | 0.00 | 42 | 1013.5 |
| 20260503175010 | 14 | 42 | 4.8 | 14.5 | 0.00 | 0.00 | 0.00 | 42 | 1013.5 |
| 20260503174515 | 13 | 251 | 4.8 | 17.7 | 0.00 | 0.00 | 0.00 | 43 | 1013.6 |
| 20260503174010 | 13 | 286 | 6.4 | 22.5 | 0.00 | 0.00 | 0.00 | 44 | 1013.7 |
| 20260503173509 | 13 | 233 | 1.6 | 22.5 | 0.00 | 0.00 | 0.00 | 45 | 1013.7 |
| 20260503173013 | 13 | 203 | 4.8 | 16.1 | 0.00 | 0.00 | 0.00 | 46 | 1013.8 |
| 20260503172509 | 13 | 129 | 4.8 | 14.5 | 0.00 | 0.00 | 0.00 | 47 | 1013.7 |
| 20260503172009 | 13 | 108 | 6.4 | 19.3 | 0.00 | 0.00 | 0.00 | 45 | 1013.9 |
| 20260503171509 | 13 | 171 | 6.4 | 19.3 | 0.00 | 0.00 | 0.00 | 44 | 1014.0 |
| 20260503171010 | 13 | 333 | 4.8 | 17.7 | 0.00 | 0.00 | 0.00 | 46 | 1013.9 |
| 20260503170509 | 13 | 157 | 4.8 | 17.7 | 0.00 | 0.00 | 0.00 | 48 | 1013.9 |
| 20260503150556 | 11 | 23 | 8.0 | 20.9 | 0.00 | 0.00 | 0.00 | 50 | 1014.1 |
| 20260503150106 | 11 | 257 | 3.2 | 14.5 | 0.00 | 0.00 | 0.00 | 53 | 1014.1 |
| 20260503131146 | 9 | 198 | 3.2 | 22.5 | 0.00 | 0.00 | 0.00 | 61 | 1014.1 |
| 20260503130550 | 8 | 326 | 8.0 | 25.7 | 0.00 | 0.00 | 0.00 | 60 | 1014.1 |